Time,TemperatureF,DewpointF,PressureIn,WindDirection,WindDirectionDegrees,WindSpeedMPH,WindSpeedGustMPH,Humidity,HourlyPrecipIn,Conditions,Clouds,dailyrainin,SolarRadiationWatts/m^2,SoftwareType,DateUTC
2013-01-28 00:00:00,18.0,9.5,30.51,SW,229,0.0,1.0,69,0.00,,,0.00,0.0,meteohub,2013-01-28 05:00:00,
2013-01-28 00:07:00,17.8,9.7,30.51,SW,229,0.0,0.0,70,0.00,,,0.00,0.0,meteohub,2013-01-28 05:07:00,
2013-01-28 00:12:00,17.8,9.7,30.51,SW,229,0.0,0.0,70,0.00,,,0.00,0.0,meteohub,2013-01-28 05:12:00,
2013-01-28 00:17:00,17.8,10.0,30.51,SW,229,0.0,0.0,71,0.00,,,0.00,0.0,meteohub,2013-01-28 05:17:00,
2013-01-28 00:22:00,17.6,9.9,30.51,SW,229,0.0,0.0,71,0.00,,,0.00,0.0,meteohub,2013-01-28 05:22:00,
2013-01-28 00:27:00,17.4,9.3,30.51,SW,229,0.0,0.0,70,0.00,,,0.00,0.0,meteohub,2013-01-28 05:27:00,
2013-01-28 00:32:00,17.4,9.3,30.51,SW,229,0.0,0.0,70,0.00,,,0.00,0.0,meteohub,2013-01-28 05:32:00,
2013-01-28 00:37:00,17.4,9.3,30.52,SW,229,0.0,0.0,70,0.00,,,0.00,0.0,meteohub,2013-01-28 05:37:00,
2013-01-28 00:42:00,17.4,9.3,30.52,SW,229,0.0,0.0,70,0.00,,,0.00,0.0,meteohub,2013-01-28 05:42:00,
2013-01-28 00:47:00,17.4,9.7,30.51,SW,229,0.0,0.0,71,0.00,,,0.00,0.0,meteohub,2013-01-28 05:47:00,
2013-01-28 00:52:00,17.4,9.7,30.51,SW,229,0.0,0.0,71,0.00,,,0.00,0.0,meteohub,2013-01-28 05:52:00,
2013-01-28 00:58:00,17.4,9.7,30.51,SW,229,0.0,0.0,71,0.00,,,0.00,0.0,meteohub,2013-01-28 05:58:00,
2013-01-28 01:03:00,17.8,10.2,30.50,SW,229,0.0,0.0,72,0.00,,,0.00,0.0,meteohub,2013-01-28 06:03:00,
2013-01-28 01:08:00,17.8,9.7,30.50,SW,229,0.0,0.0,70,0.00,,,0.00,0.0,meteohub,2013-01-28 06:08:00,
2013-01-28 01:13:00,17.8,9.7,30.50,SW,229,0.0,0.0,70,0.00,,,0.00,0.0,meteohub,2013-01-28 06:13:00,
2013-01-28 01:18:00,18.0,10.2,30.50,SW,229,0.0,0.0,71,0.00,,,0.00,0.0,meteohub,2013-01-28 06:18:00,
2013-01-28 01:23:00,18.0,9.5,30.50,SW,229,0.0,0.0,69,0.00,,,0.00,0.0,meteohub,2013-01-28 06:23:00,
2013-01-28 01:28:00,18.1,10.4,30.50,SW,229,0.0,0.0,71,0.00,,,0.00,0.0,meteohub,2013-01-28 06:28:00,
2013-01-28 01:33:00,18.1,10.0,30.50,SW,229,0.0,0.0,70,0.00,,,0.00,0.0,meteohub,2013-01-28 06:33:00,
2013-01-28 01:38:00,18.3,9.9,30.50,SW,229,0.0,0.0,69,0.00,,,0.00,0.0,meteohub,2013-01-28 06:38:00,
2013-01-28 01:43:00,18.3,9.9,30.50,SW,229,0.0,0.0,69,0.00,,,0.00,0.0,meteohub,2013-01-28 06:43:00,
2013-01-28 01:49:00,18.5,9.3,30.50,SW,229,0.0,0.0,67,0.00,,,0.00,0.0,meteohub,2013-01-28 06:49:00,
2013-01-28 01:54:00,18.7,9.1,30.50,SW,229,0.0,0.0,66,0.00,,,0.00,0.0,meteohub,2013-01-28 06:54:00,
2013-01-28 01:59:00,18.7,9.5,30.50,SW,229,0.0,0.0,67,0.00,,,0.00,0.0,meteohub,2013-01-28 06:59:00,
2013-01-28 02:04:00,18.9,9.7,30.50,SW,229,0.0,0.0,67,0.00,,,0.00,0.0,meteohub,2013-01-28 07:04:00,
2013-01-28 02:09:00,19.0,9.9,30.50,SW,229,0.0,0.0,67,0.00,,,0.00,0.0,meteohub,2013-01-28 07:09:00,
2013-01-28 02:14:00,19.2,9.7,30.50,SW,229,0.0,0.0,66,0.00,,,0.00,0.0,meteohub,2013-01-28 07:14:00,
2013-01-28 02:19:00,19.6,10.8,30.49,SW,229,0.0,0.0,68,0.00,,,0.00,0.0,meteohub,2013-01-28 07:19:00,
2013-01-28 02:24:00,19.8,10.2,30.49,SW,229,0.0,0.0,66,0.00,,,0.00,0.0,meteohub,2013-01-28 07:24:00,
2013-01-28 02:29:00,19.8,9.9,30.49,SW,229,0.0,0.0,65,0.00,,,0.00,0.0,meteohub,2013-01-28 07:29:00,
2013-01-28 02:34:00,19.9,10.0,30.49,SW,229,0.0,0.0,65,0.00,,,0.00,0.0,meteohub,2013-01-28 07:34:00,
2013-01-28 02:39:00,20.1,9.5,30.48,SW,229,0.0,0.0,63,0.00,,,0.00,0.0,meteohub,2013-01-28 07:39:00,
2013-01-28 02:45:00,20.1,9.1,30.48,SW,229,0.0,0.0,62,0.00,,,0.00,0.0,meteohub,2013-01-28 07:45:00,
2013-01-28 02:50:00,20.3,9.7,30.48,SW,229,0.0,0.0,63,0.00,,,0.00,0.0,meteohub,2013-01-28 07:50:00,
2013-01-28 02:55:00,20.5,8.8,30.48,SW,229,0.0,0.0,60,0.00,,,0.00,0.0,meteohub,2013-01-28 07:55:00,
2013-01-28 03:00:00,20.5,7.7,30.48,SW,229,0.0,0.0,57,0.00,,,0.00,0.0,meteohub,2013-01-28 08:00:00,
2013-01-28 03:05:00,20.7,9.0,30.48,SW,229,0.0,0.0,60,0.00,,,0.00,0.0,meteohub,2013-01-28 08:05:00,
2013-01-28 03:10:00,20.7,10.0,30.47,SW,229,0.0,0.0,63,0.00,,,0.00,0.0,meteohub,2013-01-28 08:10:00,
2013-01-28 03:15:00,20.7,10.8,30.47,SW,229,0.0,0.0,65,0.00,,,0.00,0.0,meteohub,2013-01-28 08:15:00,
2013-01-28 03:20:00,20.7,10.0,30.47,SW,229,0.0,0.0,63,0.00,,,0.00,0.0,meteohub,2013-01-28 08:20:00,
2013-01-28 03:25:00,20.7,9.7,30.46,SW,229,0.0,0.0,62,0.00,,,0.00,0.0,meteohub,2013-01-28 08:25:00,
2013-01-28 03:31:00,20.7,11.1,30.46,SW,229,0.0,0.0,66,0.00,,,0.00,0.0,meteohub,2013-01-28 08:31:00,
2013-01-28 03:36:00,20.7,9.3,30.46,SW,229,0.0,0.0,61,0.00,,,0.00,0.0,meteohub,2013-01-28 08:36:00,
2013-01-28 03:41:00,20.7,10.4,30.46,SW,229,0.0,0.0,64,0.00,,,0.00,0.0,meteohub,2013-01-28 08:41:00,
2013-01-28 03:46:00,20.7,10.4,30.46,SW,229,0.0,0.0,64,0.00,,,0.00,0.0,meteohub,2013-01-28 08:46:00,
2013-01-28 03:51:00,20.7,9.7,30.46,SW,229,0.0,0.0,62,0.00,,,0.00,0.0,meteohub,2013-01-28 08:51:00,
2013-01-28 03:56:00,20.7,10.4,30.46,SW,229,0.0,0.0,64,0.00,,,0.00,0.0,meteohub,2013-01-28 08:56:00,
2013-01-28 04:01:00,20.7,10.0,30.46,SW,229,0.0,0.0,63,0.00,,,0.00,0.0,meteohub,2013-01-28 09:01:00,
2013-01-28 04:06:00,20.7,10.4,30.46,SW,229,0.0,0.0,64,0.00,,,0.00,0.0,meteohub,2013-01-28 09:06:00,
2013-01-28 04:12:00,20.8,9.1,30.46,SW,229,0.0,0.0,60,0.00,,,0.00,0.0,meteohub,2013-01-28 09:12:00,
2013-01-28 04:17:00,21.0,9.0,30.46,SW,229,0.0,0.0,59,0.00,,,0.00,0.0,meteohub,2013-01-28 09:17:00,
2013-01-28 04:22:00,21.0,9.0,30.45,SW,229,0.0,0.0,59,0.00,,,0.00,0.0,meteohub,2013-01-28 09:22:00,
2013-01-28 04:27:00,21.2,9.1,30.45,SW,229,0.0,0.0,59,0.00,,,0.00,0.0,meteohub,2013-01-28 09:27:00,
2013-01-28 04:32:00,21.2,8.8,30.45,SW,229,0.0,0.0,58,0.00,,,0.00,0.0,meteohub,2013-01-28 09:32:00,
2013-01-28 04:37:00,21.2,7.9,30.45,SW,229,0.0,0.0,56,0.00,,,0.00,0.0,meteohub,2013-01-28 09:37:00,
2013-01-28 04:42:00,21.2,8.8,30.45,SW,229,0.0,0.0,58,0.00,,,0.00,0.0,meteohub,2013-01-28 09:42:00,
2013-01-28 04:47:00,21.2,8.8,30.44,SW,229,0.0,0.0,58,0.00,,,0.00,0.0,meteohub,2013-01-28 09:47:00,
2013-01-28 04:52:00,21.4,10.0,30.44,SW,229,0.0,0.0,61,0.00,,,0.00,0.0,meteohub,2013-01-28 09:52:00,
2013-01-28 04:57:00,21.2,9.9,30.44,SW,229,0.0,0.0,61,0.00,,,0.00,0.0,meteohub,2013-01-28 09:57:00,
2013-01-28 05:02:00,21.2,8.8,30.44,SW,229,0.0,0.0,58,0.00,,,0.00,0.0,meteohub,2013-01-28 10:02:00,
2013-01-28 05:07:00,21.2,8.4,30.44,SW,229,0.0,0.0,57,0.00,,,0.00,0.0,meteohub,2013-01-28 10:07:00,
2013-01-28 05:13:00,21.2,8.4,30.43,SW,229,0.0,0.0,57,0.00,,,0.00,0.0,meteohub,2013-01-28 10:13:00,
2013-01-28 05:18:00,21.2,8.4,30.43,SW,229,0.0,0.0,57,0.00,,,0.00,0.0,meteohub,2013-01-28 10:18:00,
2013-01-28 05:23:00,21.2,8.4,30.43,SW,229,0.0,0.0,57,0.00,,,0.00,0.0,meteohub,2013-01-28 10:23:00,
2013-01-28 05:28:00,21.2,8.4,30.43,SW,229,0.0,0.0,57,0.00,,,0.00,0.0,meteohub,2013-01-28 10:28:00,
2013-01-28 05:33:00,21.2,7.9,30.43,SW,229,0.0,0.0,56,0.00,,,0.00,0.0,meteohub,2013-01-28 10:33:00,
2013-01-28 05:38:00,21.4,9.7,30.43,SW,229,0.0,0.0,60,0.00,,,0.00,0.0,meteohub,2013-01-28 10:38:00,
2013-01-28 05:43:00,21.4,9.0,30.43,SW,229,0.0,0.0,58,0.00,,,0.00,0.0,meteohub,2013-01-28 10:43:00,
2013-01-28 05:48:00,21.4,9.0,30.43,SW,229,0.0,0.0,58,0.00,,,0.00,0.0,meteohub,2013-01-28 10:48:00,
2013-01-28 05:54:00,21.4,10.0,30.43,SW,229,0.0,0.0,61,0.00,,,0.00,0.0,meteohub,2013-01-28 10:54:00,
2013-01-28 05:59:00,21.4,10.4,30.43,SW,229,0.0,0.0,62,0.00,,,0.00,0.0,meteohub,2013-01-28 10:59:00,
2013-01-28 06:04:00,21.4,9.0,30.43,SW,229,0.0,0.0,58,0.00,,,0.00,0.0,meteohub,2013-01-28 11:04:00,
2013-01-28 06:09:00,21.4,8.6,30.42,SW,229,0.0,0.0,57,0.00,,,0.00,0.0,meteohub,2013-01-28 11:09:00,
2013-01-28 06:14:00,21.6,9.9,30.42,SW,229,0.0,0.0,60,0.00,,,0.00,0.0,meteohub,2013-01-28 11:14:00,
2013-01-28 06:19:00,21.6,9.9,30.42,SW,229,0.0,0.0,60,0.00,,,0.00,0.0,meteohub,2013-01-28 11:19:00,
2013-01-28 06:24:00,21.6,9.9,30.42,SW,229,0.0,0.0,60,0.00,,,0.00,0.0,meteohub,2013-01-28 11:24:00,
2013-01-28 06:29:00,21.6,10.9,30.42,SW,229,0.0,0.0,63,0.00,,,0.00,0.0,meteohub,2013-01-28 11:29:00,
2013-01-28 06:35:00,21.6,11.3,30.42,SW,229,0.0,0.0,64,0.00,,,0.00,0.0,meteohub,2013-01-28 11:35:00,
2013-01-28 06:40:00,21.6,11.7,30.41,SW,229,0.0,0.0,65,0.00,,,0.00,0.0,meteohub,2013-01-28 11:40:00,
2013-01-28 06:45:00,21.6,10.9,30.41,SW,229,0.0,0.0,63,0.00,,,0.00,0.0,meteohub,2013-01-28 11:45:00,
2013-01-28 06:50:00,21.6,11.7,30.42,SW,229,0.0,0.0,65,0.00,,,0.00,0.0,meteohub,2013-01-28 11:50:00,
2013-01-28 06:55:00,21.6,11.7,30.42,SW,229,0.0,0.0,65,0.00,,,0.00,0.0,meteohub,2013-01-28 11:55:00,
2013-01-28 07:00:00,21.6,11.7,30.42,SW,229,0.0,0.0,65,0.00,,,0.00,0.0,meteohub,2013-01-28 12:00:00,
2013-01-28 07:05:00,21.7,11.5,30.41,SW,229,0.0,0.0,64,0.00,,,0.00,0.0,meteohub,2013-01-28 12:05:00,
2013-01-28 07:10:00,21.7,11.5,30.41,SW,229,0.0,0.0,64,0.00,,,0.00,0.0,meteohub,2013-01-28 12:10:00,
2013-01-28 07:15:00,21.7,10.8,30.41,SW,229,0.0,0.0,62,0.00,,,0.00,0.0,meteohub,2013-01-28 12:15:00,
2013-01-28 07:20:00,21.7,11.1,30.41,SW,229,0.0,0.0,63,0.00,,,0.00,0.0,meteohub,2013-01-28 12:20:00,
2013-01-28 07:25:00,21.7,11.5,30.40,SW,229,0.0,0.0,64,0.00,,,0.00,0.0,meteohub,2013-01-28 12:25:00,
2013-01-28 07:30:00,21.7,11.1,30.40,SW,229,0.0,0.0,63,0.00,,,0.00,5.0,meteohub,2013-01-28 12:30:00,
2013-01-28 07:35:00,21.9,11.3,30.40,SW,229,0.0,1.0,63,0.00,,,0.00,11.0,meteohub,2013-01-28 12:35:00,
2013-01-28 07:41:00,21.9,10.9,30.40,SW,229,0.0,1.0,62,0.00,,,0.00,16.0,meteohub,2013-01-28 12:41:00,
2013-01-28 07:46:00,21.9,10.9,30.40,SW,229,0.0,1.0,62,0.00,,,0.00,9.0,meteohub,2013-01-28 12:46:00,
2013-01-28 07:51:00,21.9,10.6,30.40,SW,229,0.0,0.0,61,0.00,,,0.00,9.0,meteohub,2013-01-28 12:51:00,
2013-01-28 07:56:00,22.1,11.1,30.40,SW,229,0.0,0.0,62,0.00,,,0.00,18.0,meteohub,2013-01-28 12:56:00,
2013-01-28 08:01:00,22.3,11.7,30.40,SW,229,0.0,0.0,63,0.00,,,0.00,25.0,meteohub,2013-01-28 13:01:00,
2013-01-28 08:06:00,22.3,11.3,30.40,SW,229,0.0,0.0,62,0.00,,,0.00,21.0,meteohub,2013-01-28 13:06:00,
2013-01-28 08:11:00,22.3,10.9,30.40,SW,229,0.0,0.0,61,0.00,,,0.00,21.0,meteohub,2013-01-28 13:11:00,
2013-01-28 08:17:00,22.5,11.1,30.40,SW,229,0.0,0.0,61,0.00,,,0.00,21.0,meteohub,2013-01-28 13:17:00,
2013-01-28 08:22:00,22.3,10.9,30.40,SW,229,0.0,0.0,61,0.00,,,0.00,19.0,meteohub,2013-01-28 13:22:00,
2013-01-28 08:27:00,22.5,10.8,30.40,SW,229,0.0,0.0,60,0.00,,,0.00,25.0,meteohub,2013-01-28 13:27:00,
2013-01-28 08:32:00,22.5,11.1,30.39,SW,229,0.0,0.0,61,0.00,,,0.00,33.0,meteohub,2013-01-28 13:32:00,
2013-01-28 08:37:00,22.5,10.8,30.39,SW,229,0.0,0.0,60,0.00,,,0.00,39.0,meteohub,2013-01-28 13:37:00,
2013-01-28 08:42:00,22.5,10.8,30.39,SW,229,0.0,0.0,60,0.00,,,0.00,42.0,meteohub,2013-01-28 13:42:00,
2013-01-28 08:47:00,22.6,11.3,30.38,SW,229,0.0,0.0,61,0.00,,,0.00,42.0,meteohub,2013-01-28 13:47:00,
2013-01-28 08:52:00,22.6,10.8,30.38,SW,229,0.0,1.0,60,0.00,,,0.00,42.0,meteohub,2013-01-28 13:52:00,
2013-01-28 08:57:00,22.8,10.6,30.38,SW,225,0.0,1.0,59,0.00,,,0.00,60.0,meteohub,2013-01-28 13:57:00,
2013-01-28 09:02:00,22.8,10.9,30.37,SSW,202,0.0,3.0,60,0.00,,,0.00,46.0,meteohub,2013-01-28 14:02:00,
2013-01-28 09:07:00,23.0,11.1,30.37,SW,222,0.0,3.0,60,0.00,,,0.00,35.0,meteohub,2013-01-28 14:07:00,
2013-01-28 09:12:00,23.0,11.1,30.37,SW,225,0.0,3.0,60,0.00,,,0.00,44.0,meteohub,2013-01-28 14:12:00,
2013-01-28 09:17:00,23.2,11.7,30.37,SW,229,0.0,1.0,61,0.00,,,0.00,54.0,meteohub,2013-01-28 14:17:00,
2013-01-28 09:22:00,23.2,11.3,30.37,SW,226,0.0,1.0,60,0.00,,,0.00,54.0,meteohub,2013-01-28 14:22:00,
2013-01-28 09:27:00,23.4,11.8,30.36,SSW,213,1.0,2.0,61,0.00,,,0.00,58.0,meteohub,2013-01-28 14:27:00,
2013-01-28 09:32:00,23.4,13.3,30.36,SSW,209,3.0,4.0,65,0.00,,,0.00,67.0,meteohub,2013-01-28 14:32:00,
2013-01-28 09:37:00,23.4,14.0,30.35,SW,227,0.0,4.0,67,0.00,,,0.00,67.0,meteohub,2013-01-28 14:37:00,
2013-01-28 09:42:00,23.2,15.3,30.35,SW,236,0.0,4.0,71,0.00,,,0.00,69.0,meteohub,2013-01-28 14:42:00,
2013-01-28 09:47:00,23.2,16.5,30.35,SW,236,2.0,4.0,75,0.00,,,0.00,69.0,meteohub,2013-01-28 14:47:00,
2013-01-28 09:52:00,23.2,17.1,30.35,SSW,213,0.0,6.0,77,0.00,,,0.00,65.0,meteohub,2013-01-28 14:52:00,
2013-01-28 09:57:00,23.0,17.4,30.35,South,186,1.0,6.0,79,0.00,,,0.00,60.0,meteohub,2013-01-28 14:57:00,
2013-01-28 10:02:00,23.0,17.8,30.34,SW,217,0.0,6.0,80,0.00,,,0.00,65.0,meteohub,2013-01-28 15:02:00,
2013-01-28 10:07:00,23.2,18.1,30.35,WNW,298,0.0,5.0,81,0.00,,,0.00,65.0,meteohub,2013-01-28 15:07:00,
2013-01-28 10:12:00,23.2,18.5,30.34,SW,222,1.0,5.0,82,0.00,,,0.00,62.0,meteohub,2013-01-28 15:12:00,
2013-01-28 10:17:00,23.4,19.0,30.34,NNW,337,0.0,5.0,83,0.00,,,0.00,74.0,meteohub,2013-01-28 15:17:00,
2013-01-28 10:22:00,23.2,18.9,30.33,South,181,0.0,3.0,83,0.00,,,0.00,77.0,meteohub,2013-01-28 15:22:00,
2013-01-28 10:27:00,23.4,19.2,30.33,WSW,241,2.0,2.0,84,0.00,,,0.00,90.0,meteohub,2013-01-28 15:27:00,
2013-01-28 10:32:00,23.4,19.2,30.32,SW,216,0.0,4.0,84,0.00,,,0.00,69.0,meteohub,2013-01-28 15:32:00,
2013-01-28 10:37:00,23.2,19.6,30.32,SSW,205,0.0,4.0,86,0.00,,,0.00,83.0,meteohub,2013-01-28 15:37:00,
2013-01-28 10:42:00,23.4,20.1,30.32,SSW,212,2.0,4.0,87,0.00,,,0.00,70.0,meteohub,2013-01-28 15:42:00,
2013-01-28 10:47:00,23.4,20.1,30.32,SW,219,1.0,4.0,87,0.00,,,0.00,54.0,meteohub,2013-01-28 15:47:00,
2013-01-28 10:52:00,23.4,20.1,30.32,SSW,192,0.0,4.0,87,0.00,,,0.00,37.0,meteohub,2013-01-28 15:52:00,
2013-01-28 10:57:00,23.4,20.1,30.30,West,265,0.0,4.0,87,0.00,,,0.00,46.0,meteohub,2013-01-28 15:57:00,
2013-01-28 11:02:00,23.5,20.5,30.31,SSW,200,1.0,3.0,88,0.00,,,0.00,56.0,meteohub,2013-01-28 16:02:00,
2013-01-28 11:07:00,23.5,20.8,30.31,SSW,209,0.0,3.0,89,0.00,,,0.00,54.0,meteohub,2013-01-28 16:07:00,
2013-01-28 11:12:00,23.7,21.0,30.31,SSW,193,3.0,3.0,89,0.00,,,0.00,44.0,meteohub,2013-01-28 16:12:00,
2013-01-28 11:17:00,23.9,21.2,30.31,SE,142,0.0,3.0,89,0.00,,,0.00,47.0,meteohub,2013-01-28 16:17:00,
2013-01-28 11:22:00,24.1,21.6,30.30,SW,224,2.0,3.0,90,0.00,,,0.00,42.0,meteohub,2013-01-28 16:22:00,
2013-01-28 11:27:00,24.3,21.6,30.29,South,173,0.0,3.0,89,0.00,,,0.00,26.0,meteohub,2013-01-28 16:27:00,
2013-01-28 11:32:00,24.3,21.6,30.29,SSW,204,0.0,3.0,89,0.00,,,0.00,28.0,meteohub,2013-01-28 16:32:00,
2013-01-28 11:37:00,24.3,21.6,30.28,SSW,204,0.0,3.0,89,0.00,,,0.00,35.0,meteohub,2013-01-28 16:37:00,
2013-01-28 11:42:00,24.4,21.7,30.28,North,11,0.0,2.0,89,0.00,,,0.00,42.0,meteohub,2013-01-28 16:42:00,
2013-01-28 11:47:00,24.4,21.9,30.27,West,259,0.0,3.0,90,0.00,,,0.00,30.0,meteohub,2013-01-28 16:47:00,
2013-01-28 11:52:00,24.4,21.9,30.27,West,259,0.0,4.0,90,0.00,,,0.00,26.0,meteohub,2013-01-28 16:52:00,
2013-01-28 11:57:00,24.6,22.5,30.26,SW,227,0.0,4.0,91,0.00,,,0.00,30.0,meteohub,2013-01-28 16:57:00,
2013-01-28 12:02:00,24.6,22.5,30.25,WSW,252,2.0,4.0,91,0.00,,,0.00,42.0,meteohub,2013-01-28 17:02:00,
2013-01-28 12:07:00,24.8,22.5,30.25,SW,225,1.0,3.0,91,0.00,,,0.00,40.0,meteohub,2013-01-28 17:07:00,
2013-01-28 12:12:00,25.0,22.6,30.24,NW,323,0.0,3.0,91,0.00,,,0.00,42.0,meteohub,2013-01-28 17:12:00,
2013-01-28 12:17:00,25.0,22.6,30.23,SW,226,4.0,4.0,91,0.00,,,0.00,51.0,meteohub,2013-01-28 17:17:00,
2013-01-28 12:22:00,25.2,22.8,30.22,East,100,0.0,4.0,91,0.00,,,0.00,58.0,meteohub,2013-01-28 17:22:00,
2013-01-28 12:27:00,25.2,22.8,30.22,West,275,1.0,4.0,91,0.00,,,0.00,60.0,meteohub,2013-01-28 17:27:00,
2013-01-28 12:32:00,25.3,23.0,30.20,ENE,63,2.0,8.0,91,0.00,,,0.00,60.0,meteohub,2013-01-28 17:32:00,
2013-01-28 12:37:00,25.3,23.0,30.20,ESE,102,3.0,8.0,91,0.00,,,0.00,56.0,meteohub,2013-01-28 17:37:00,
2013-01-28 12:42:00,25.5,23.2,30.19,West,260,0.0,8.0,91,0.00,,,0.00,54.0,meteohub,2013-01-28 17:42:00,
2013-01-28 12:47:00,25.7,23.4,30.19,NNW,342,0.0,7.0,91,0.00,,,0.00,51.0,meteohub,2013-01-28 17:47:00,
2013-01-28 12:52:00,25.9,23.5,30.18,SSW,198,2.0,7.0,91,0.00,,,0.00,51.0,meteohub,2013-01-28 17:52:00,
2013-01-28 12:57:00,25.9,23.4,30.18,NE,36,1.0,5.0,90,0.00,,,0.00,44.0,meteohub,2013-01-28 17:57:00,
2013-01-28 13:02:00,25.9,23.4,30.17,ENE,63,2.0,6.0,90,0.00,,,0.00,39.0,meteohub,2013-01-28 18:02:00,
2013-01-28 13:07:00,26.1,23.5,30.17,SW,224,6.0,6.0,90,0.00,,,0.00,44.0,meteohub,2013-01-28 18:07:00,
2013-01-28 13:12:00,26.1,23.5,30.16,SW,227,1.0,8.0,90,0.00,,,0.00,49.0,meteohub,2013-01-28 18:12:00,
2013-01-28 13:17:00,26.2,23.7,30.16,NW,316,2.0,8.0,90,0.00,,,0.00,58.0,meteohub,2013-01-28 18:17:00,
2013-01-28 13:22:00,26.2,23.7,30.14,WSW,242,0.0,8.0,90,0.00,,,0.00,46.0,meteohub,2013-01-28 18:22:00,
2013-01-28 13:27:00,26.4,23.9,30.13,NNE,31,3.0,5.0,90,0.00,,,0.00,60.0,meteohub,2013-01-28 18:27:00,
2013-01-28 13:32:00,26.6,24.1,30.12,WSW,242,4.0,8.0,90,0.00,,,0.00,77.0,meteohub,2013-01-28 18:32:00,
2013-01-28 13:37:00,26.8,23.9,30.12,NNW,332,0.0,9.0,89,0.00,,,0.00,91.0,meteohub,2013-01-28 18:37:00,
2013-01-28 13:42:00,27.0,24.1,30.12,SW,226,0.0,9.0,89,0.00,,,0.00,95.0,meteohub,2013-01-28 18:42:00,
2013-01-28 13:47:00,27.0,24.4,30.11,NNE,33,0.0,9.0,90,0.00,,,0.00,74.0,meteohub,2013-01-28 18:47:00,
2013-01-28 13:52:00,27.1,24.3,30.10,South,189,3.0,9.0,89,0.00,,,0.00,74.0,meteohub,2013-01-28 18:52:00,
2013-01-28 13:57:00,27.1,24.3,30.09,SE,134,1.0,9.0,89,0.00,,,0.00,79.0,meteohub,2013-01-28 18:57:00,
2013-01-28 14:02:00,27.1,24.3,30.08,NE,34,4.0,9.0,89,0.00,,,0.00,74.0,meteohub,2013-01-28 19:02:00,
2013-01-28 14:07:00,27.3,24.4,30.09,SSE,153,1.0,6.0,89,0.00,,,0.00,86.0,meteohub,2013-01-28 19:07:00,
2013-01-28 14:12:00,27.3,24.4,30.10,NE,48,1.0,10.0,89,0.00,,,0.00,53.0,meteohub,2013-01-28 19:12:00,
2013-01-28 14:17:00,27.3,24.4,30.09,WNW,298,3.0,10.0,89,0.00,,,0.00,46.0,meteohub,2013-01-28 19:17:00,
2013-01-28 14:22:00,27.7,24.8,30.09,SSW,198,3.0,10.0,89,0.00,,,0.00,35.0,meteohub,2013-01-28 19:22:00,
2013-01-28 14:27:00,27.9,24.8,30.09,NNW,340,2.0,14.0,88,0.00,,,0.00,39.0,meteohub,2013-01-28 19:27:00,
2013-01-28 14:32:00,28.0,25.0,30.10,SSE,164,0.0,14.0,88,0.00,,,0.00,14.0,meteohub,2013-01-28 19:32:00,
2013-01-28 14:37:00,28.2,25.2,30.10,WSW,248,4.0,9.0,88,0.00,,,0.00,16.0,meteohub,2013-01-28 19:37:00,
2013-01-28 14:42:00,28.2,24.8,30.12,West,269,3.0,7.0,87,0.00,,,0.00,12.0,meteohub,2013-01-28 19:42:00,
2013-01-28 14:47:00,28.2,25.2,30.10,North,0,2.0,7.0,88,0.00,,,0.00,12.0,meteohub,2013-01-28 19:47:00,
2013-01-28 14:52:00,28.4,25.3,30.10,SE,146,0.0,9.0,88,0.00,,,0.00,12.0,meteohub,2013-01-28 19:52:00,
2013-01-28 14:57:00,28.4,25.3,30.10,WSW,240,5.0,10.0,88,0.00,,,0.00,14.0,meteohub,2013-01-28 19:57:00,
2013-01-28 15:02:00,28.4,25.3,30.09,WSW,255,2.0,10.0,88,0.00,,,0.00,12.0,meteohub,2013-01-28 20:02:00,
2013-01-28 15:07:00,28.4,25.3,30.09,North,0,2.0,10.0,88,0.00,,,0.00,16.0,meteohub,2013-01-28 20:07:00,
2013-01-28 15:12:00,28.4,25.3,30.09,East,101,0.0,8.0,88,0.00,,,0.00,25.0,meteohub,2013-01-28 20:12:00,
2013-01-28 15:17:00,28.6,25.7,30.09,SW,223,5.0,8.0,89,0.00,,,0.00,25.0,meteohub,2013-01-28 20:17:00,
2013-01-28 15:22:00,28.6,25.7,30.09,SW,215,1.0,7.0,89,0.00,,,0.00,37.0,meteohub,2013-01-28 20:22:00,
2013-01-28 15:27:00,28.6,26.1,30.08,SSW,210,0.0,8.0,90,0.00,,,0.00,54.0,meteohub,2013-01-28 20:27:00,
2013-01-28 15:32:00,28.6,26.1,30.08,ESE,103,1.0,8.0,90,0.00,,,0.00,60.0,meteohub,2013-01-28 20:32:00,
2013-01-28 15:37:00,28.6,26.1,30.08,West,259,0.0,7.0,90,0.00,,,0.00,58.0,meteohub,2013-01-28 20:37:00,
2013-01-28 15:42:00,28.8,26.4,30.07,SW,235,0.0,5.0,91,0.00,,,0.00,90.0,meteohub,2013-01-28 20:42:00,
2013-01-28 15:47:00,28.8,26.4,30.06,NW,313,0.0,5.0,91,0.00,,,0.00,83.0,meteohub,2013-01-28 20:47:00,
2013-01-28 15:52:00,28.8,26.4,30.07,South,188,0.0,4.0,91,0.00,,,0.00,37.0,meteohub,2013-01-28 20:52:00,
2013-01-28 15:57:00,28.8,26.4,30.09,WNW,284,0.0,4.0,91,0.00,,,0.00,16.0,meteohub,2013-01-28 20:57:00,
2013-01-28 16:02:00,28.8,26.4,30.09,WSW,254,0.0,4.0,91,0.00,,,0.00,9.0,meteohub,2013-01-28 21:02:00,
2013-01-28 16:07:00,28.8,26.4,30.08,WSW,254,0.0,4.0,91,0.00,,,0.00,7.0,meteohub,2013-01-28 21:07:00,
2013-01-28 16:13:00,28.8,26.4,30.07,NW,315,1.0,4.0,91,0.00,,,0.00,14.0,meteohub,2013-01-28 21:13:00,
2013-01-28 16:18:00,28.8,26.4,30.07,NW,315,0.0,2.0,91,0.00,,,0.00,11.0,meteohub,2013-01-28 21:18:00,
2013-01-28 16:23:00,28.8,26.4,30.07,NW,315,0.0,2.0,91,0.00,,,0.00,7.0,meteohub,2013-01-28 21:23:00,
2013-01-28 16:28:00,28.8,26.4,30.06,NW,315,0.0,1.0,91,0.00,,,0.00,5.0,meteohub,2013-01-28 21:28:00,
2013-01-28 16:33:00,28.8,26.4,30.07,WSW,242,0.0,1.0,91,0.00,,,0.00,0.0,meteohub,2013-01-28 21:33:00,
2013-01-28 16:38:00,28.8,26.8,30.07,SW,232,0.0,2.0,92,0.00,,,0.00,0.0,meteohub,2013-01-28 21:38:00,
2013-01-28 16:43:00,28.9,27.0,30.07,SW,226,0.0,2.0,92,0.00,,,0.00,0.0,meteohub,2013-01-28 21:43:00,
2013-01-28 16:48:00,28.9,27.0,30.07,SW,226,0.0,2.0,92,0.00,,,0.00,0.0,meteohub,2013-01-28 21:48:00,
2013-01-28 16:54:00,28.9,27.0,30.06,SW,226,0.0,2.0,92,0.00,,,0.00,0.0,meteohub,2013-01-28 21:54:00,
2013-01-28 16:59:00,28.9,27.0,30.05,SSW,198,0.0,2.0,92,0.00,,,0.00,0.0,meteohub,2013-01-28 21:59:00,
2013-01-28 17:04:00,28.9,27.0,30.05,SSW,198,0.0,1.0,92,0.00,,,0.00,0.0,meteohub,2013-01-28 22:04:00,
2013-01-28 17:09:00,28.9,27.0,30.05,SSW,198,0.0,1.0,92,0.00,,,0.00,0.0,meteohub,2013-01-28 22:09:00,
2013-01-28 17:14:00,28.9,27.0,30.05,SSW,198,0.0,1.0,92,0.00,,,0.00,0.0,meteohub,2013-01-28 22:14:00,
2013-01-28 17:19:00,28.9,27.0,30.06,SSW,198,0.0,1.0,92,0.00,,,0.00,0.0,meteohub,2013-01-28 22:19:00,
2013-01-28 17:24:00,28.9,27.1,30.05,SSW,198,0.0,1.0,93,0.00,,,0.00,0.0,meteohub,2013-01-28 22:24:00,
2013-01-28 17:29:00,28.9,27.1,30.04,SSW,198,0.0,1.0,93,0.00,,,0.00,0.0,meteohub,2013-01-28 22:29:00,
2013-01-28 17:34:00,28.9,27.1,30.04,SSW,198,0.0,1.0,93,0.00,,,0.00,0.0,meteohub,2013-01-28 22:34:00,
2013-01-28 17:39:00,28.9,27.1,30.04,SSW,198,1.0,1.0,93,0.00,,,0.00,0.0,meteohub,2013-01-28 22:39:00,
2013-01-28 17:45:00,29.1,27.3,30.04,SSW,198,0.0,0.0,93,0.00,,,0.00,0.0,meteohub,2013-01-28 22:45:00,
2013-01-28 17:50:00,29.1,27.3,30.03,SSW,198,0.0,2.0,93,0.00,,,0.00,0.0,meteohub,2013-01-28 22:50:00,
2013-01-28 17:55:00,29.1,27.3,30.03,SSW,193,1.0,2.0,93,0.00,,,0.00,0.0,meteohub,2013-01-28 22:55:00,
2013-01-28 18:00:00,29.3,27.5,30.03,SSW,194,0.0,2.0,93,0.00,,,0.00,0.0,meteohub,2013-01-28 23:00:00,
2013-01-28 18:05:00,29.5,27.7,30.03,South,177,0.0,2.0,93,0.00,,,0.00,0.0,meteohub,2013-01-28 23:05:00,
2013-01-28 18:10:00,29.5,27.7,30.04,South,186,0.0,2.0,93,0.00,,,0.00,0.0,meteohub,2013-01-28 23:10:00,
2013-01-28 18:15:00,29.5,27.7,30.04,WSW,250,0.0,2.0,93,0.00,,,0.00,0.0,meteohub,2013-01-28 23:15:00,
2013-01-28 18:20:00,29.7,27.9,30.05,SW,225,0.0,2.0,93,0.00,,,0.00,0.0,meteohub,2013-01-28 23:20:00,
2013-01-28 18:25:00,29.7,28.2,30.04,SW,225,0.0,2.0,94,0.00,,,0.00,0.0,meteohub,2013-01-28 23:25:00,
2013-01-28 18:30:00,29.7,28.2,30.03,SW,225,0.0,2.0,94,0.00,,,0.00,0.0,meteohub,2013-01-28 23:30:00,
2013-01-28 18:35:00,29.7,28.2,30.04,SW,225,0.0,2.0,94,0.00,,,0.00,0.0,meteohub,2013-01-28 23:35:00,
2013-01-28 18:41:00,29.7,28.2,30.05,SW,225,0.0,2.0,94,0.00,,,0.00,0.0,meteohub,2013-01-28 23:41:00,
2013-01-28 18:46:00,29.7,28.2,30.04,SW,225,0.0,2.0,94,0.00,,,0.00,0.0,meteohub,2013-01-28 23:46:00,
2013-01-28 18:51:00,29.7,28.2,30.05,SW,223,0.0,1.0,94,0.00,,,0.00,0.0,meteohub,2013-01-28 23:51:00,
2013-01-28 18:56:00,29.7,28.2,30.04,SW,223,0.0,1.0,94,0.00,,,0.00,0.0,meteohub,2013-01-28 23:56:00,
2013-01-28 19:01:00,29.8,28.4,30.04,SW,223,0.0,1.0,94,0.00,,,0.00,0.0,meteohub,2013-01-29 00:01:00,
2013-01-28 19:06:00,29.8,28.4,30.04,SW,223,0.0,1.0,94,0.00,,,0.00,0.0,meteohub,2013-01-29 00:06:00,
2013-01-28 19:11:00,29.8,28.4,30.03,SW,223,0.0,1.0,94,0.00,,,0.00,0.0,meteohub,2013-01-29 00:11:00,
2013-01-28 19:16:00,30.0,28.6,30.03,SW,223,0.0,1.0,94,0.00,,,0.00,0.0,meteohub,2013-01-29 00:16:00,
2013-01-28 19:21:00,30.0,28.6,30.03,SW,223,1.0,1.0,94,0.00,,,0.00,0.0,meteohub,2013-01-29 00:21:00,
2013-01-28 19:26:00,30.0,28.6,30.02,SW,223,0.0,1.0,94,0.00,,,0.00,0.0,meteohub,2013-01-29 00:26:00,
2013-01-28 19:31:00,30.0,28.6,30.02,SW,223,0.0,1.0,94,0.00,,,0.00,0.0,meteohub,2013-01-29 00:31:00,
2013-01-28 19:36:00,30.0,28.6,30.03,SW,223,1.0,2.0,94,0.00,,,0.00,0.0,meteohub,2013-01-29 00:36:00,
2013-01-28 19:42:00,30.0,28.6,30.02,SW,223,0.0,2.0,94,0.00,,,0.00,0.0,meteohub,2013-01-29 00:42:00,
2013-01-28 19:47:00,30.0,28.6,30.02,SW,223,0.0,2.0,94,0.00,,,0.00,0.0,meteohub,2013-01-29 00:47:00,
2013-01-28 19:52:00,30.0,28.6,30.02,SW,223,0.0,1.0,94,0.00,,,0.00,0.0,meteohub,2013-01-29 00:52:00,
2013-01-28 19:57:00,30.0,28.6,30.01,SW,223,0.0,1.0,94,0.00,,,0.00,0.0,meteohub,2013-01-29 00:57:00,
2013-01-28 20:02:00,30.0,28.6,30.01,SW,223,0.0,1.0,94,0.00,,,0.00,0.0,meteohub,2013-01-29 01:02:00,
2013-01-28 20:07:00,30.0,28.6,30.01,South,172,0.0,0.0,94,0.00,,,0.00,0.0,meteohub,2013-01-29 01:07:00,
2013-01-28 20:12:00,30.2,28.8,30.01,South,172,0.0,1.0,94,0.00,,,0.00,0.0,meteohub,2013-01-29 01:12:00,
2013-01-28 20:17:00,30.0,28.6,30.01,South,172,0.0,1.0,94,0.00,,,0.00,0.0,meteohub,2013-01-29 01:17:00,
2013-01-28 20:22:00,30.0,28.8,30.01,South,172,0.0,1.0,95,0.00,,,0.00,0.0,meteohub,2013-01-29 01:22:00,
2013-01-28 20:27:00,30.0,28.8,30.01,South,172,0.0,0.0,95,0.00,,,0.00,0.0,meteohub,2013-01-29 01:27:00,
2013-01-28 20:32:00,30.0,28.8,30.01,South,172,0.0,0.0,95,0.00,,,0.00,0.0,meteohub,2013-01-29 01:32:00,
2013-01-28 20:37:00,30.0,28.8,30.00,South,172,0.0,0.0,95,0.00,,,0.00,0.0,meteohub,2013-01-29 01:37:00,
2013-01-28 20:42:00,30.2,28.9,30.00,South,172,0.0,0.0,95,0.00,,,0.00,0.0,meteohub,2013-01-29 01:42:00,
2013-01-28 20:47:00,30.0,28.8,30.00,South,172,0.0,0.0,95,0.00,,,0.00,0.0,meteohub,2013-01-29 01:47:00,
2013-01-28 20:52:00,30.0,28.8,30.00,South,172,0.0,0.0,95,0.00,,,0.00,0.0,meteohub,2013-01-29 01:52:00,
2013-01-28 20:57:00,30.0,28.8,29.99,South,172,0.0,0.0,95,0.00,,,0.00,0.0,meteohub,2013-01-29 01:57:00,
2013-01-28 21:02:00,30.0,28.8,29.99,South,172,0.0,0.0,95,0.00,,,0.00,0.0,meteohub,2013-01-29 02:02:00,
2013-01-28 21:07:00,30.0,28.8,29.99,South,172,0.0,0.0,95,0.00,,,0.00,0.0,meteohub,2013-01-29 02:07:00,
2013-01-28 21:12:00,30.0,28.8,29.99,South,172,0.0,0.0,95,0.00,,,0.00,0.0,meteohub,2013-01-29 02:12:00,
2013-01-28 21:17:00,30.0,28.8,29.99,South,172,0.0,0.0,95,0.00,,,0.00,0.0,meteohub,2013-01-29 02:17:00,
2013-01-28 21:22:00,30.2,28.9,29.99,South,172,0.0,0.0,95,0.00,,,0.00,0.0,meteohub,2013-01-29 02:22:00,
2013-01-28 21:27:00,30.2,28.9,29.99,South,172,0.0,0.0,95,0.00,,,0.00,0.0,meteohub,2013-01-29 02:27:00,
2013-01-28 21:32:00,30.2,28.9,29.99,South,172,0.0,0.0,95,0.00,,,0.00,0.0,meteohub,2013-01-29 02:32:00,
2013-01-28 21:37:00,30.2,28.9,29.99,South,172,0.0,0.0,95,0.00,,,0.00,0.0,meteohub,2013-01-29 02:37:00,
2013-01-28 21:42:00,30.2,28.9,29.99,South,172,0.0,0.0,95,0.00,,,0.00,0.0,meteohub,2013-01-29 02:42:00,
2013-01-28 21:47:00,30.0,28.8,29.99,South,172,0.0,0.0,95,0.00,,,0.00,0.0,meteohub,2013-01-29 02:47:00,
2013-01-28 21:52:00,30.0,28.8,29.99,South,172,0.0,0.0,95,0.00,,,0.00,0.0,meteohub,2013-01-29 02:52:00,
2013-01-28 21:57:00,30.0,28.8,29.98,South,172,0.0,0.0,95,0.00,,,0.00,0.0,meteohub,2013-01-29 02:57:00,
2013-01-28 22:02:00,30.0,28.8,29.98,South,172,0.0,0.0,95,0.00,,,0.00,0.0,meteohub,2013-01-29 03:02:00,
2013-01-28 22:07:00,30.0,28.9,29.98,South,172,0.0,0.0,96,0.00,,,0.00,0.0,meteohub,2013-01-29 03:07:00,
2013-01-28 22:12:00,30.0,28.9,29.98,South,172,0.0,0.0,96,0.00,,,0.00,0.0,meteohub,2013-01-29 03:12:00,
2013-01-28 22:18:00,30.0,28.9,29.98,South,172,0.0,0.0,96,0.00,,,0.00,0.0,meteohub,2013-01-29 03:18:00,
2013-01-28 22:23:00,30.0,28.8,29.98,South,172,0.0,0.0,95,0.00,,,0.00,0.0,meteohub,2013-01-29 03:23:00,
2013-01-28 22:28:00,30.2,29.1,29.98,South,172,0.0,0.0,96,0.00,,,0.00,0.0,meteohub,2013-01-29 03:28:00,
2013-01-28 22:33:00,30.2,28.9,29.98,South,172,0.0,0.0,95,0.00,,,0.00,0.0,meteohub,2013-01-29 03:33:00,
2013-01-28 22:38:00,30.2,28.9,29.98,South,172,0.0,0.0,95,0.00,,,0.00,0.0,meteohub,2013-01-29 03:38:00,
2013-01-28 22:43:00,30.2,28.9,29.99,South,172,0.0,0.0,95,0.00,,,0.00,0.0,meteohub,2013-01-29 03:43:00,
2013-01-28 22:48:00,30.2,29.1,29.98,South,172,0.0,0.0,96,0.00,,,0.00,0.0,meteohub,2013-01-29 03:48:00,
2013-01-28 22:53:00,30.2,29.1,29.99,South,172,0.0,0.0,96,0.00,,,0.00,0.0,meteohub,2013-01-29 03:53:00,
2013-01-28 22:58:00,30.2,29.1,29.99,South,172,0.0,0.0,96,0.00,,,0.00,0.0,meteohub,2013-01-29 03:58:00,
2013-01-28 23:03:00,30.2,29.1,29.99,South,172,0.0,0.0,96,0.00,,,0.00,0.0,meteohub,2013-01-29 04:03:00,
2013-01-28 23:08:00,30.2,29.1,29.99,South,172,0.0,0.0,96,0.00,,,0.00,0.0,meteohub,2013-01-29 04:08:00,
2013-01-28 23:14:00,30.2,29.1,29.99,South,172,0.0,0.0,96,0.00,,,0.00,0.0,meteohub,2013-01-29 04:14:00,
2013-01-28 23:19:00,30.4,29.3,29.99,South,172,0.0,0.0,96,0.00,,,0.00,0.0,meteohub,2013-01-29 04:19:00,
2013-01-28 23:24:00,30.4,29.3,29.99,South,172,0.0,0.0,96,0.00,,,0.00,0.0,meteohub,2013-01-29 04:24:00,
2013-01-28 23:29:00,30.4,29.3,29.99,South,172,0.0,0.0,96,0.00,,,0.00,0.0,meteohub,2013-01-29 04:29:00,
2013-01-28 23:34:00,30.4,29.3,29.99,South,172,0.0,0.0,96,0.00,,,0.00,0.0,meteohub,2013-01-29 04:34:00,
2013-01-28 23:39:00,30.4,29.3,29.99,South,172,0.0,0.0,96,0.00,,,0.00,0.0,meteohub,2013-01-29 04:39:00,
2013-01-28 23:44:00,30.4,29.3,29.99,South,172,0.0,0.0,96,0.00,,,0.00,0.0,meteohub,2013-01-29 04:44:00,
2013-01-28 23:49:00,30.4,29.3,29.99,South,172,0.0,0.0,96,0.00,,,0.00,0.0,meteohub,2013-01-29 04:49:00,
2013-01-28 23:54:00,30.4,29.3,29.99,South,172,0.0,0.0,96,0.00,,,0.00,0.0,meteohub,2013-01-29 04:54:00,
2013-01-28 23:59:00,30.4,29.3,29.99,South,172,0.0,0.0,96,0.00,,,0.00,0.0,meteohub,2013-01-29 04:59:00,